Hourly Weather Kladi

Today, 30 July, Friday

Time Temperature Precipitation Wind Pressure Humidity
00:00 +18°C° 0 mm 2 mps 741 mmHg 97%
01:00 +17°C° 0 mm 2 mps 741 mmHg 96%
02:00 +17°C° 0 mm 2 mps 741 mmHg 96%
03:00 +17°C° 0 mm 2 mps 741 mmHg 95%
04:00 +16°C° 0 mm 2 mps 741 mmHg 95%
05:00 +16°C° 0 mm 2 mps 741 mmHg 94%
06:00 +18°C° 0 mm 2 mps 741 mmHg 87%
07:00 +20°C° 0 mm 3 mps 741 mmHg 81%
08:00 +21°C° 0 mm 3 mps 741 mmHg 74%
09:00 +23°C° 0.1 mm 4 mps 741 mmHg 65%
10:00 +25°C° 0.1 mm 5 mps 741 mmHg 56%
11:00 +26°C° 0.1 mm 6 mps 741 mmHg 47%
12:00 +26°C° 0 mm 6 mps 741 mmHg 43%
13:00 +26°C° 0 mm 6 mps 741 mmHg 39%
14:00 +27°C° 0 mm 6 mps 741 mmHg 36%
15:00 +26°C° 0 mm 6 mps 741 mmHg 38%
16:00 +26°C° 0 mm 6 mps 741 mmHg 40%
17:00 +24°C° 0 mm 6 mps 740 mmHg 43%
18:00 +23°C° 0 mm 5 mps 740 mmHg 50%
19:00 +21°C° 0 mm 4 mps 740 mmHg 57%
20:00 +20°C° 0 mm 3 mps 740 mmHg 63%
21:00 +19°C° 0 mm 3 mps 740 mmHg 68%
22:00 +18°C° 0 mm 3 mps 740 mmHg 73%
23:00 +17°C° 0 mm 3 mps 740 mmHg 78%

Tomorrow, 31 July, Saturday

Time Temperature Precipitation Wind Pressure Humidity
00:00 +17°C° 0 mm 3 mps 740 mmHg 80%
01:00 +16°C° 0 mm 3 mps 740 mmHg 83%
02:00 +14°C° 0 mm 3 mps 740 mmHg 86%
03:00 +14°C° 0 mm 3 mps 740 mmHg 85%
04:00 +14°C° 0 mm 3 mps 740 mmHg 84%
05:00 +14°C° 0 mm 3 mps 740 mmHg 83%
06:00 +17°C° 0 mm 4 mps 740 mmHg 74%
07:00 +19°C° 0 mm 5 mps 741 mmHg 65%
08:00 +21°C° 0 mm 5 mps 741 mmHg 55%
09:00 +23°C° 0 mm 6 mps 741 mmHg 50%
10:00 +24°C° 0 mm 6 mps 741 mmHg 44%
11:00 +26°C° 0 mm 6 mps 741 mmHg 38%
12:00 +27°C° 0 mm 6 mps 741 mmHg 37%
13:00 +28°C° 0 mm 6 mps 741 mmHg 36%
14:00 +28°C° 0 mm 5 mps 741 mmHg 35%
15:00 +28°C° 0 mm 5 mps 741 mmHg 37%
16:00 +28°C° 0 mm 4 mps 741 mmHg 39%
17:00 +28°C° 0 mm 4 mps 741 mmHg 41%
18:00 +26°C° 0 mm 3 mps 741 mmHg 49%
19:00 +23°C° 0 mm 2 mps 741 mmHg 57%
20:00 +21°C° 0 mm 1 mps 741 mmHg 66%
21:00 +21°C° 0 mm 1 mps 741 mmHg 66%
22:00 +21°C° 0 mm 1 mps 741 mmHg 66%
23:00 +21°C° 0 mm 1 mps 741 mmHg 66%

Day after tomorrow, 1 August, Sunday

Time Temperature Precipitation Wind Pressure Humidity
00:00 +20°C° 0.6 mm 1 mps 741 mmHg 75%
01:00 +18°C° 0.6 mm 2 mps 741 mmHg 84%
02:00 +17°C° 0.6 mm 2 mps 741 mmHg 93%
03:00 +19°C° 1.5 mm 1 mps 741 mmHg 94%
04:00 +19°C° 1.5 mm 1 mps 741 mmHg 96%
05:00 +19°C° 1.5 mm 1 mps 741 mmHg 97%
06:00 +19°C° 0.1 mm 1 mps 741 mmHg 96%
07:00 +20°C° 0.1 mm 1 mps 741 mmHg 95%
08:00 +19°C° 0.1 mm 2 mps 741 mmHg 94%
09:00 +21°C° 0 mm 2 mps 741 mmHg 82%
10:00 +24°C° 0 mm 3 mps 741 mmHg 69%
11:00 +26°C° 0 mm 3 mps 741 mmHg 56%
12:00 +27°C° 0 mm 4 mps 741 mmHg 50%
13:00 +28°C° 0 mm 4 mps 741 mmHg 44%
14:00 +29°C° 0 mm 5 mps 741 mmHg 37%
15:00 +28°C° 0 mm 5 mps 741 mmHg 39%
16:00 +28°C° 0 mm 5 mps 741 mmHg 40%
17:00 +27°C° 0 mm 4 mps 741 mmHg 42%
18:00 +25°C° 0 mm 4 mps 741 mmHg 49%
19:00 +24°C° 0 mm 3 mps 741 mmHg 56%
20:00 +21°C° 0 mm 2 mps 741 mmHg 62%
21:00 +21°C° 0 mm 1 mps 741 mmHg 65%
22:00 +20°C° 0 mm 1 mps 741 mmHg 68%
23:00 +17°C° 0 mm 0 mps 741 mmHg 71%

2 August, Monday

Time Temperature Precipitation Wind Pressure Humidity
00:00 +19°C° 0 mm 1 mps 741 mmHg 73%
01:00 +18°C° 0 mm 1 mps 741 mmHg 75%
02:00 +17°C° 0 mm 2 mps 741 mmHg 77%
03:00 +17°C° 0.7 mm 2 mps 740 mmHg 83%
04:00 +17°C° 0.7 mm 2 mps 740 mmHg 89%
05:00 +16°C° 0.7 mm 2 mps 739 mmHg 95%
06:00 +17°C° 0.8 mm 3 mps 739 mmHg 94%
07:00 +18°C° 0.8 mm 4 mps 738 mmHg 93%
08:00 +19°C° 0.8 mm 5 mps 738 mmHg 93%
09:00 +20°C° 0.1 mm 5 mps 738 mmHg 86%
10:00 +22°C° 0.1 mm 5 mps 738 mmHg 79%
11:00 +23°C° 0.1 mm 5 mps 738 mmHg 71%
12:00 +25°C° 0.1 mm 5 mps 738 mmHg 71%
13:00 +25°C° 0.1 mm 4 mps 737 mmHg 70%
14:00 +25°C° 0.1 mm 4 mps 737 mmHg 69%
15:00 +22°C° 0.7 mm 4 mps 738 mmHg 77%
16:00 +20°C° 0.7 mm 5 mps 738 mmHg 85%
17:00 +17°C° 0.7 mm 5 mps 738 mmHg 93%
18:00 +16°C° 0 mm 5 mps 739 mmHg 92%
19:00 +15°C° 0 mm 5 mps 739 mmHg 92%
20:00 +14°C° 0 mm 5 mps 740 mmHg 92%
21:00 +13°C° 0 mm 4 mps 741 mmHg 94%
22:00 +12°C° 0 mm 3 mps 741 mmHg 95%
23:00 +12°C° 0 mm 3 mps 742 mmHg 97%

3 August, Tuesday

Time Temperature Precipitation Wind Pressure Humidity
00:00 +11°C° 0 mm 3 mps 742 mmHg 97%
01:00 +11°C° 0 mm 3 mps 742 mmHg 97%
02:00 +11°C° 0 mm 3 mps 742 mmHg 96%
03:00 +11°C° 0 mm 3 mps 742 mmHg 96%
04:00 +12°C° 0 mm 3 mps 742 mmHg 96%
05:00 +12°C° 0 mm 3 mps 742 mmHg 96%
06:00 +14°C° 0 mm 3 mps 742 mmHg 90%
07:00 +15°C° 0 mm 4 mps 743 mmHg 83%
08:00 +18°C° 0 mm 4 mps 743 mmHg 77%
09:00 +19°C° 0 mm 4 mps 743 mmHg 66%
10:00 +21°C° 0 mm 5 mps 743 mmHg 56%
11:00 +22°C° 0 mm 5 mps 743 mmHg 45%
12:00 +22°C° 0 mm 5 mps 743 mmHg 45%
13:00 +23°C° 0 mm 5 mps 743 mmHg 45%
14:00 +23°C° 0 mm 6 mps 743 mmHg 44%
15:00 +22°C° 0.1 mm 5 mps 743 mmHg 51%
16:00 +21°C° 0.1 mm 5 mps 744 mmHg 57%
17:00 +21°C° 0.1 mm 5 mps 744 mmHg 63%
18:00 +19°C° 0.1 mm 4 mps 744 mmHg 72%
19:00 +17°C° 0.1 mm 3 mps 744 mmHg 81%
20:00 +16°C° 0.1 mm 3 mps 745 mmHg 90%
21:00 +15°C° 0 mm 2 mps 745 mmHg 91%
22:00 +15°C° 0 mm 2 mps 745 mmHg 93%
23:00 +14°C° 0 mm 2 mps 745 mmHg 95%

4 August, Wednesday

Time Temperature Precipitation Wind Pressure Humidity
00:00 +14°C° 0 mm 2 mps 746 mmHg 95%
01:00 +13°C° 0 mm 2 mps 746 mmHg 96%
02:00 +13°C° 0 mm 2 mps 746 mmHg 96%
03:00 +13°C° 0 mm 2 mps 747 mmHg 97%
04:00 +13°C° 0 mm 2 mps 747 mmHg 97%
05:00 +13°C° 0 mm 1 mps 747 mmHg 97%
06:00 +14°C° 0 mm 1 mps 748 mmHg 89%
07:00 +16°C° 0 mm 1 mps 748 mmHg 81%
08:00 +18°C° 0 mm 1 mps 748 mmHg 74%
09:00 +20°C° 0 mm 1 mps 748 mmHg 67%
10:00 +21°C° 0 mm 1 mps 748 mmHg 59%
11:00 +23°C° 0 mm 1 mps 749 mmHg 52%
12:00 +24°C° 0.1 mm 1 mps 748 mmHg 49%
13:00 +24°C° 0.1 mm 1 mps 748 mmHg 47%
14:00 +25°C° 0.1 mm 1 mps 748 mmHg 44%
15:00 +24°C° 0 mm 1 mps 748 mmHg 47%
16:00 +24°C° 0 mm 1 mps 748 mmHg 49%
17:00 +23°C° 0 mm 1 mps 748 mmHg 51%
18:00 +22°C° 0 mm 1 mps 748 mmHg 53%
19:00 +21°C° 0 mm 1 mps 748 mmHg 55%
20:00 +19°C° 0 mm 2 mps 748 mmHg 56%
21:00 +19°C° 0 mm 2 mps 748 mmHg 57%
22:00 +18°C° 0 mm 2 mps 748 mmHg 57%
23:00 +17°C° 0 mm 2 mps 748 mmHg 58%
Show more